Theta_e
313 312 312 312 315 319 319 320 317 319 320 310 312 314 316 321 321 321 321 322 321 328 333 338 341 338 345 344 344 344 343 345 344 338 339 354 353 351 354 351 353 350 349 348 344 341 337 331 328 324 316 312 316 323 332 335 335 337 339 339 340 341 342 343 343 343 343 343 343 343 342 342 342 342 342 342 343 343 343 343 343 343 342 341 339 338 338 340 341 341 340 340 339 337 334 334 335
315 313 312 314 318 320 318 321 314 314 314 308 313 315 318 321 321 320 321 321 321 329 334 340 342 342 346 345 344 344 345 348 351 351 350 353 351 353 353 352 352 349 350 348 344 344 342 336 327 324 317 313 319 329 337 338 336 337 339 340 341 341 342 342 343 343 343 343 343 343 342 342 342 343 343 343 343 343 343 343 343 341 341 339 339 339 340 340 340 340 340 340 340 338 336 336 335
314 313 315 317 318 319 318 320 313 309 310 308 312 318 322 320 321 320 321 320 321 331 336 338 342 344 343 343 344 342 347 350 349 350 350 351 352 352 353 353 351 350 349 347 345 345 345 338 328 324 318 313 322 335 339 338 338 338 339 340 341 342 342 342 343 343 343 343 343 342 343 343 343 343 343 343 342 342 342 341 341 340 340 339 340 340 340 340 339 340 340 340 340 339 337 336 333
312 313 316 317 318 319 318 318 316 311 308 308 310 319 322 319 321 320 320 320 320 328 334 338 340 343 343 344 345 342 347 350 351 351 351 351 351 352 353 353 349 350 348 347 346 345 344 336 328 325 319 314 322 336 338 337 338 339 339 339 341 341 341 342 342 343 343 343 342 342 343 343 343 343 342 341 340 340 340 339 339 340 341 340 340 339 339 339 339 340 340 341 340 339 336 333 330
313 315 316 317 317 318 319 318 317 313 310 311 311 318 321 320 321 319 320 319 321 327 333 336 335 342 344 345 346 345 349 350 352 352 352 351 351 353 352 352 350 349 347 347 346 346 344 334 328 325 320 315 322 335 338 338 338 339 338 338 340 340 341 341 343 343 343 343 343 343 343 343 342 342 341 339 339 338 338 337 335 337 339 340 339 338 338 339 340 340 341 340 338 335 333 331 328
315 316 316 317 318 317 317 314 313 312 315 318 315 319 320 319 320 318 319 319 322 328 331 330 330 338 340 347 348 348 352 351 352 351 352 351 351 353 353 351 350 349 347 348 346 347 343 333 329 325 321 318 324 336 339 337 338 338 338 340 341 342 343 342 343 343 343 343 343 343 343 342 341 341 340 338 337 336 335 334 333 332 333 337 338 338 338 338 339 340 340 338 335 332 330 328 327
315 316 316 316 316 317 314 311 312 313 317 321 318 319 319 318 319 318 318 318 321 326 328 328 331 331 335 345 347 350 352 351 352 351 351 351 351 353 352 351 349 349 348 348 346 347 341 332 329 325 322 320 326 337 338 337 338 339 339 341 343 343 343 343 344 344 344 343 342 342 342 342 341 340 338 335 334 333 332 333 333 331 330 332 335 337 337 338 339 339 338 336 333 331 329 327 327
315 315 316 316 315 316 314 312 313 315 318 319 319 319 318 318 317 318 318 318 318 322 326 327 332 329 335 343 343 351 351 350 353 350 351 351 352 352 352 351 348 348 347 347 345 346 340 332 329 325 323 320 327 337 338 338 339 338 339 341 342 343 343 343 344 344 343 343 342 342 342 341 339 338 336 333 332 332 333 333 333 332 332 332 332 335 336 336 338 338 336 335 334 331 329 326 328
314 315 316 315 314 315 313 312 314 316 319 318 319 318 318 318 317 318 317 318 317 318 321 320 327 327 334 340 342 351 351 351 352 350 351 350 352 352 352 350 346 347 346 346 345 346 341 333 329 325 325 321 327 337 338 337 339 339 340 340 342 343 343 343 343 343 343 342 342 341 341 339 338 337 337 335 333 332 331 332 331 331 333 334 333 332 332 334 336 336 335 335 333 332 329 325 330
315 315 315 315 313 310 309 311 313 316 318 317 318 317 317 317 317 318 316 318 316 317 318 317 325 327 333 339 343 350 352 352 351 350 350 351 352 351 351 349 345 346 345 345 345 346 342 336 331 327 326 322 325 335 338 338 339 340 340 340 342 343 343 343 342 342 342 342 341 340 339 338 338 338 337 334 330 329 329 330 330 329 331 332 333 332 329 330 332 334 334 334 333 332 328 325 330
314 314 315 314 311 308 308 310 313 316 317 317 317 316 317 316 316 316 316 317 316 317 316 318 323 324 330 336 345 351 352 351 351 350 350 351 351 351 350 347 346 346 345 345 345 346 343 339 335 329 326 324 325 331 335 338 340 340 340 340 341 343 343 342 342 342 342 342 341 340 339 338 338 337 336 333 329 330 331 332 331 328 328 329 330 331 329 328 330 331 331 332 332 331 326 325 331
314 314 315 311 309 309 310 310 312 316 317 316 316 316 316 316 315 315 315 315 316 316 316 319 321 323 328 332 347 352 352 351 351 350 351 351 351 350 348 347 347 346 346 344 346 346 343 342 339 334 330 325 324 327 332 337 339 339 339 339 342 342 342 342 342 342 342 341 340 339 339 338 338 337 337 333 329 329 331 333 332 329 327 324 324 327 329 328 328 326 325 327 329 328 323 325 332
313 315 314 311 311 312 312 312 313 315 315 316 316 316 316 315 315 315 316 316 317 318 318 319 321 327 327 333 350 352 351 351 350 351 351 351 350 349 348 348 347 346 346 344 346 345 344 343 341 340 336 330 328 327 329 333 336 337 337 339 341 341 342 342 342 342 341 340 340 340 339 338 338 337 337 333 329 327 329 331 332 331 326 320 319 322 325 323 321 320 321 324 325 324 322 328 332
313 315 315 312 314 314 313 312 313 312 312 316 316 315 315 314 315 316 318 320 321 321 322 320 322 328 327 338 351 350 352 351 351 351 351 351 350 349 348 348 347 346 345 344 345 344 344 343 343 341 338 337 335 334 332 332 334 336 337 339 341 341 342 342 342 341 341 341 340 340 339 339 338 337 336 334 331 328 327 329 331 332 329 325 320 321 324 321 317 319 319 321 321 321 324 330 333
313 315 315 313 313 313 313 312 313 311 312 316 315 315 315 315 316 318 323 328 330 328 327 325 324 327 331 338 342 348 352 350 351 351 351 351 350 349 348 348 347 346 345 345 345 344 344 343 343 342 340 340 340 339 338 335 333 335 337 339 340 341 341 341 341 341 341 341 340 340 339 338 337 336 336 335 332 330 328 330 331 331 332 329 322 319 320 320 318 318 319 320 320 322 328 332 332
315 314 314 313 311 311 312 313 313 311 313 315 314 315 315 316 316 320 330 335 337 333 329 329 327 328 335 335 334 348 352 350 352 351 351 350 349 349 348 348 346 346 345 345 344 344 344 343 343 342 342 341 341 341 340 338 335 334 336 338 339 340 340 341 341 341 341 340 340 339 338 338 338 336 336 336 334 332 331 331 330 329 332 332 327 321 317 318 318 318 319 320 321 326 331 332 332
314 314 313 312 311 311 313 314 314 312 314 315 314 315 315 316 316 324 337 338 337 332 328 331 330 333 339 339 343 353 351 350 351 351 351 349 349 349 348 348 346 346 345 346 345 344 343 343 343 342 343 342 342 341 340 340 335 334 336 338 338 339 340 340 341 341 341 340 340 338 338 340 341 339 339 338 336 335 333 331 330 329 331 332 331 325 318 318 319 319 320 322 325 329 331 332 333
313 314 313 312 312 312 314 315 315 314 315 315 315 315 315 316 315 324 335 338 339 332 331 338 338 339 344 346 351 352 350 350 351 350 350 350 350 349 349 348 347 346 346 346 345 344 344 344 344 343 343 342 342 342 341 340 336 336 336 337 338 339 339 340 341 340 341 341 340 339 339 340 340 340 340 338 337 338 335 332 332 331 331 331 331 330 322 318 318 320 322 323 327 329 332 334 335
313 314 313 312 314 314 315 315 315 315 315 315 315 316 315 316 316 318 325 334 341 335 334 342 342 342 345 350 353 351 350 350 350 350 350 350 349 349 349 348 347 346 346 346 345 344 344 344 343 343 343 342 342 341 341 340 338 337 336 337 338 338 339 340 340 339 339 340 339 339 339 338 338 339 338 337 336 338 336 333 334 333 332 331 330 331 327 322 318 318 321 324 326 328 332 336 337
313 314 314 314 316 315 314 314 314 314 314 315 315 316 315 316 316 317 321 329 338 337 335 340 342 343 345 350 352 351 350 350 350 350 350 350 349 349 348 348 347 346 345 345 345 344 344 343 343 342 342 342 342 341 341 340 338 336 336 336 336 338 339 339 339 338 338 338 338 337 337 337 337 337 337 336 335 336 336 333 333 333 333 330 329 332 332 328 323 320 319 321 326 329 333 336 335
314 314 315 315 316 315 315 313 314 314 313 314 315 315 316 316 316 317 323 327 333 338 335 336 341 343 346 349 350 352 351 350 351 350 350 350 349 348 348 347 346 346 345 345 345 344 344 343 342 342 342 342 341 341 340 340 338 336 335 335 335 337 338 338 338 338 337 337 337 336 337 337 336 336 336 337 335 335 336 334 334 334 335 333 331 335 336 333 331 329 325 324 328 331 333 335 334
314 315 315 315 316 315 315 314 313 314 314 314 315 315 316 316 316 318 321 321 328 338 336 336 340 342 347 350 350 351 350 349 351 350 350 349 349 348 348 346 346 345 345 344 345 344 343 343 342 342 342 342 341 340 339 338 337 335 335 336 336 336 337 337 337 337 337 336 336 336 336 336 335 335 334 335 336 337 337 336 336 336 336 335 334 336 336 336 336 335 332 331 331 331 332 334 335
314 316 314 314 316 315 315 315 314 315 315 315 315 316 316 316 316 317 319 320 327 339 340 339 342 344 348 350 350 349 347 348 350 350 349 348 348 348 347 345 345 345 344 345 345 344 344 343 342 342 342 342 341 339 338 337 336 335 336 337 337 336 336 336 336 336 336 336 336 336 335 335 335 335 336 337 338 339 339 339 339 338 337 337 336 336 335 335 335 334 334 334 332 331 331 333 334
314 314 315 314 316 315 315 316 315 315 315 315 316 316 316 316 316 317 320 323 328 338 342 341 344 347 347 348 349 348 347 348 349 349 348 347 347 346 346 345 345 344 344 344 344 344 343 343 342 342 342 341 340 339 338 336 335 335 336 336 336 336 336 336 336 336 336 336 335 335 335 335 335 337 338 339 340 340 340 340 340 340 340 339 338 338 337 336 334 334 334 334 334 333 332 332 332
313 312 314 315 315 314 315 315 315 316 315 316 315 316 316 315 317 318 319 326 335 341 343 344 344 345 346 347 349 348 347 348 349 348 347 346 346 345 344 344 344 344 344 344 343 343 343 343 342 341 341 341 340 338 337 335 335 335 335 335 335 335 336 337 336 336 335 335 335 335 335 336 337 339 340 340 341 341 341 340 340 341 341 341 341 340 340 339 338 336 334 333 333 334 334 333 331
312 312 313 315 315 314 314 315 315 315 315 315 315 315 316 318 321 320 321 333 343 344 343 345 345 345 345 346 348 348 347 348 348 347 346 345 345 345 344 344 344 343 343 343 343 343 343 342 341 341 340 340 339 337 336 335 335 335 335 335 335 335 336 336 335 336 336 335 335 336 337 338 340 340 340 340 340 341 341 341 341 341 341 341 341 341 341 341 340 339 337 335 333 333 334 334 334
313 312 313 314 314 314 315 315 315 315 315 316 315 315 316 323 325 321 329 343 346 346 345 345 344 344 345 345 346 348 348 348 347 347 346 345 345 345 344 344 344 343 343 342 343 343 342 341 341 341 340 339 337 336 335 334 335 335 335 335 335 335 335 335 335 336 336 336 336 337 338 339 340 340 339 339 340 341 341 340 340 340 341 342 341 341 341 341 341 340 340 339 337 335 333 333 335
314 313 313 314 313 314 315 315 316 315 316 315 315 316 315 323 325 321 334 346 348 347 346 346 344 344 344 344 347 348 348 348 347 346 346 345 345 345 344 344 344 344 343 342 343 342 341 340 340 340 339 338 336 335 335 335 335 335 335 335 335 335 336 335 336 336 336 336 336 337 338 339 339 340 340 340 340 340 340 340 340 340 341 341 340 340 340 340 341 340 340 340 340 338 336 334 334
313 313 313 313 313 314 314 314 316 315 315 315 315 315 314 319 322 323 334 344 349 348 346 346 345 344 344 345 347 347 348 348 346 345 345 345 345 344 344 344 344 344 343 342 342 342 340 340 339 339 338 337 336 335 335 335 336 335 335 336 336 336 336 336 337 338 338 337 337 337 338 339 339 341 342 341 340 340 340 341 341 341 340 340 340 339 340 340 340 340 340 340 340 339 338 336 335
312 312 312 313 312 312 314 314 314 315 315 315 314 311 312 317 319 326 335 341 349 349 347 346 344 345 345 346 347 346 348 347 346 345 345 345 344 344 344 344 344 343 343 342 342 341 339 339 339 338 338 337 336 335 335 335 335 335 336 337 337 337 337 337 337 338 339 339 338 339 339 340 340 340 341 341 340 340 340 341 341 340 340 339 339 339 339 340 339 339 339 339 339 339 338 337 337
311 311 311 312 310 311 314 314 314 315 314 315 315 310 313 318 317 329 337 339 347 348 347 346 344 345 345 347 347 346 347 346 346 346 345 345 344 343 343 343 343 343 343 342 341 340 339 339 339 338 337 337 336 336 335 335 335 336 337 338 338 338 338 338 339 339 339 339 339 339 340 339 340 340 340 340 340 340 340 340 340 340 339 339 339 339 339 339 338 339 339 338 338 338 338 337 337
311 310 309 310 309 311 314 314 313 315 314 315 314 310 314 318 319 331 337 338 346 346 346 347 345 346 346 347 347 346 346 346 346 345 345 345 344 344 344 343 342 342 342 342 341 340 339 339 339 338 337 336 336 336 336 336 336 337 338 339 339 340 339 340 340 340 340 340 340 340 340 340 340 340 339 340 340 340 340 339 339 340 339 338 339 339 338 337 338 338 338 338 338 338 338 337 337
311 310 308 308 309 311 313 314 314 314 315 315 314 312 315 317 324 337 340 340 345 345 346 346 345 347 347 347 347 347 346 345 345 344 344 344 344 344 343 342 342 341 341 341 341 340 339 339 338 338 336 337 337 337 338 337 338 338 339 340 340 340 340 341 341 341 341 341 341 341 340 340 340 340 340 340 340 340 340 339 339 340 339 338 338 338 337 337 337 337 337 337 338 338 337 337 337
310 310 309 310 310 310 311 313 314 314 315 315 315 314 316 319 327 339 342 342 345 345 347 347 346 347 347 347 347 346 345 343 342 342 344 343 341 340 340 341 340 340 341 340 340 339 339 339 338 337 336 338 338 338 338 338 338 339 340 340 340 340 340 340 340 340 342 341 341 341 340 340 340 340 340 340 340 340 340 339 338 339 338 337 338 338 337 336 336 336 336 336 336 337 337 337 337
310 309 310 311 311 310 311 312 314 314 314 315 315 315 317 322 327 335 339 342 344 345 348 347 347 347 347 347 345 346 345 342 341 341 341 339 337 336 337 338 339 340 341 340 339 339 339 339 338 337 337 339 339 339 339 339 339 339 340 340 340 340 339 340 340 341 342 341 342 341 341 341 340 341 341 340 340 340 339 338 338 338 337 337 337 337 336 336 336 336 335 335 335 335 335 336 337
311 310 310 311 309 309 312 313 313 314 314 314 315 314 315 320 325 329 336 341 343 345 348 348 347 347 347 346 345 345 343 341 340 340 338 337 336 336 337 337 338 340 341 340 339 339 339 340 338 337 338 340 340 340 340 340 340 340 340 340 340 340 340 340 340 341 341 341 341 341 341 341 340 341 341 340 340 340 339 338 338 337 337 337 336 337 336 336 336 336 335 335 335 335 335 335 335
313 311 311 311 309 309 313 314 313 313 314 314 315 315 315 318 323 326 335 342 343 345 349 349 348 346 346 346 344 343 340 339 339 338 337 337 337 338 337 337 338 340 340 340 340 339 340 339 338 338 339 340 340 340 340 340 341 341 341 341 340 340 340 340 340 341 341 341 341 340 340 341 341 341 341 341 341 340 338 338 338 337 336 337 336 336 336 336 336 335 335 335 334 335 335 334 334
313 311 310 310 309 310 313 314 313 313 313 313 315 315 315 318 321 325 335 343 343 344 348 349 348 346 346 346 343 341 337 337 337 337 337 335 336 338 338 338 338 339 340 340 340 340 340 339 338 338 339 340 340 340 340 341 341 341 341 341 340 340 340 340 341 341 342 342 341 341 341 341 340 341 340 340 340 340 338 338 338 337 337 337 336 336 335 336 335 335 335 334 334 334 334 334 334
312 311 310 309 310 311 313 313 313 312 313 314 315 314 314 318 320 323 334 342 343 340 342 344 345 344 344 344 342 340 337 337 337 337 337 336 336 338 339 339 338 339 340 340 340 339 339 339 338 338 339 339 340 340 341 341 341 341 341 340 340 340 340 341 342 342 342 342 341 340 340 340 340 340 340 340 340 340 339 338 337 337 337 336 336 336 335 336 335 335 335 334 334 334 334 334 334
312 311 309 308 310 311 310 311 313 313 313 314 316 314 314 319 322 325 333 338 341 340 341 342 342 341 340 342 342 340 338 338 339 338 338 338 338 339 339 339 338 338 339 339 340 340 339 339 338 339 339 339 340 341 341 341 341 341 341 340 340 340 340 340 341 340 340 340 340 340 339 339 339 339 339 340 340 340 339 338 338 338 337 336 336 337 336 337 336 336 336 336 336 335 334 334 334
311 312 311 310 311 311 310 312 313 313 312 314 314 312 313 321 325 327 331 335 338 343 345 344 344 341 340 342 343 341 339 339 340 340 338 339 339 338 338 338 338 338 338 339 339 339 339 339 338 339 339 340 341 341 341 341 341 341 340 340 339 339 339 339 339 339 339 339 339 339 339 338 339 339 339 339 339 340 339 339 339 338 337 337 337 336 336 337 337 337 337 337 337 336 334 334 334
311 312 312 312 313 312 312 313 312 311 310 313 313 309 310 319 324 325 328 332 336 342 344 342 342 343 343 345 344 341 340 341 341 339 338 339 338 337 337 338 338 338 338 338 338 338 338 338 338 339 340 341 341 341 341 340 340 340 339 339 338 338 339 339 339 338 338 338 338 338 338 338 338 338 338 338 338 339 338 338 338 337 337 336 336 336 336 336 336 337 337 337 336 336 336 335 334
310 311 312 312 313 312 312 312 311 309 309 313 313 310 309 314 318 322 326 329 333 339 341 339 337 340 343 344 343 341 341 341 341 340 339 339 338 337 338 338 338 339 337 337 337 337 338 337 338 340 341 341 341 341 340 339 340 340 338 338 338 338 338 338 338 338 337 337 337 337 338 338 338 338 338 337 337 337 336 336 336 336 335 336 335 336 336 335 335 335 336 336 336 336 336 335 335
310 312 312 311 312 312 312 311 310 310 311 313 313 311 310 310 314 321 326 326 330 335 338 338 336 337 341 342 342 342 341 340 341 340 339 339 338 338 338 338 338 338 337 337 337 337 338 337 338 340 340 340 340 340 340 339 339 339 337 337 338 337 338 337 337 337 337 337 337 337 336 336 336 336 335 335 334 334 334 334 334 334 334 333 334 334 335 335 335 334 335 335 335 335 335 334 334
311 312 312 311 311 312 312 311 310 311 312 310 310 311 310 309 313 318 323 324 327 331 333 334 334 334 338 341 342 342 340 340 341 340 339 339 339 339 338 338 338 337 337 337 337 338 338 336 338 340 339 339 340 340 339 338 338 338 337 337 337 337 337 336 336 336 336 336 336 335 335 334 334 334 333 333 333 332 332 332 332 333 332 332 332 333 333 334 334 334 334 334 334 334 334 334 334
310 311 311 311 312 312 312 311 310 311 312 310 310 310 309 309 312 315 318 320 323 328 330 330 331 333 337 340 341 341 340 340 340 339 339 340 340 339 338 338 337 337 338 338 338 339 338 336 338 339 338 339 339 338 338 337 337 337 337 337 336 335 335 335 334 335 335 335 334 334 334 333 333 332 332 331 331 330 330 330 330 331 331 331 331 331 332 333 333 333 333 333 334 333 333 333 333
310 310 311 311 312 312 312 312 310 310 312 311 309 310 309 309 310 313 316 317 321 327 328 328 331 333 337 340 339 339 339 340 339 338 339 340 339 338 338 338 338 337 338 338 338 338 338 338 338 338 337 338 337 337 337 336 336 336 336 336 335 335 334 334 334 334 334 333 333 332 332 331 330 330 329 329 328 327 328 328 328 329 329 330 330 331 332 332 332 332 332 332 332 332 332 333 333
310 310 309 310 310 311 311 311 311 312 312 310 310 311 310 308 310 314 319 318 319 325 327 327 330 333 338 340 338 337 339 340 339 338 338 339 338 338 338 337 337 337 337 337 337 337 337 338 338 337 336 336 336 336 335 335 335 335 335 334 334 334 333 333 333 332 332 331 331 330 329 329 328 327 326 326 325 324 325 325 326 326 327 328 329 329 330 330 331 331 331 331 331 331 331 332 332
309 309 308 309 310 312 312 311 312 313 311 310 310 310 310 309 311 317 320 319 318 321 324 325 328 333 338 339 338 338 340 340 339 339 338 338 338 338 337 336 337 337 337 337 337 337 337 336 336 336 335 334 334 335 334 334 333 333 333 333 332 331 331 331 331 330 329 328 328 327 327 326 326 324 324 323 323 322 322 323 323 323 324 325 326 326 327 328 329 329 330 330 330 331 331 331 331
309 308 308 309 310 313 314 313 312 312 311 311 311 311 310 309 313 322 327 328 328 327 326 325 326 332 337 338 337 338 340 340 339 339 338 337 338 338 336 336 337 337 337 337 337 336 336 335 335 335 334 334 333 333 332 331 331 331 330 330 330 329 328 328 327 327 326 326 325 325 324 324 323 323 322 321 321 320 320 320 320 321 321 322 323 324 325 326 327 328 328 329 330 330 330 330 331
309 309 309 309 309 312 313 312 312 312 311 311 311 312 310 309 318 329 332 333 334 333 332 331 329 332 336 337 337 338 339 339 340 339 337 337 338 336 336 337 336 337 336 336 336 335 335 334 334 334 333 332 331 330 330 329 329 328 328 327 327 326 326 325 324 324 323 323 323 323 322 322 322 321 321 320 319 319 319 319 319 319 320 320 321 323 324 325 326 326 327 328 328 329 329 330 330
309 310 309 308 309 310 311 312 313 311 312 313 312 312 313 319 328 332 330 331 333 334 334 334 334 336 336 337 338 339 339 340 340 339 337 337 337 336 336 335 335 336 336 336 335 335 334 333 332 332 331 330 329 329 328 327 327 326 325 324 324 323 323 323 322 321 321 321 321 321 321 320 319 319 319 318 317 317 317 317 317 318 318 319 320 321 322 323 324 325 325 326 327 327 328 328 328
310 309 308 310 311 311 310 312 314 311 312 314 312 311 316 323 329 332 330 330 332 334 335 336 338 338 337 338 339 339 340 340 340 339 337 337 337 335 333 332 332 334 334 335 335 334 333 333 332 331 330 329 328 327 327 326 325 324 323 322 321 321 321 321 321 320 320 320 320 320 319 318 317 317 316 316 316 316 316 316 316 316 317 317 318 318 319 320 321 322 323 324 325 325 325 325 326
310 308 309 311 312 312 311 311 313 312 312 313 311 312 314 316 322 332 333 331 332 333 335 338 339 338 338 339 338 338 341 340 339 338 336 334 333 331 330 330 331 331 332 333 334 333 332 332 331 330 329 328 327 326 325 324 323 322 321 320 320 320 320 320 320 319 319 319 318 317 316 316 315 315 314 314 314 314 314 314 315 315 315 316 316 316 317 317 318 319 320 322 322 322 322 323 323
310 310 311 311 311 311 311 311 313 312 312 312 311 312 312 313 321 330 332 333 334 333 335 338 339 339 339 338 338 339 340 338 336 334 331 330 329 329 329 330 331 330 330 331 331 331 330 330 329 328 327 326 325 324 323 322 322 321 320 320 320 319 319 319 318 318 318 317 316 315 315 315 314 313 313 313 313 313 313 314 314 314 314 315 315 315 315 316 316 317 318 319 319 319 319 320 321
311 311 310 310 311 310 310 311 312 312 311 311 312 314 313 314 322 326 326 332 336 335 335 337 338 338 338 340 340 339 337 333 331 330 329 329 330 330 329 330 329 328 328 328 328 328 328 327 326 326 325 324 323 323 322 321 320 320 319 319 318 318 318 317 317 317 316 315 315 315 314 314 313 313 313 313 313 313 313 313 313 314 314 314 314 314 314 315 315 316 316 317 317 317 317 318 318
310 310 309 309 310 311 311 310 309 310 311 310 313 316 315 317 325 326 323 327 334 336 336 337 338 337 338 340 337 333 331 329 329 330 330 330 330 329 327 325 325 325 325 325 325 325 325 324 324 324 324 323 322 321 321 320 319 319 319 318 318 317 317 316 316 315 315 315 314 314 313 313 313 312 312 312 312 312 312 313 313 313 313 313 313 314 314 314 315 315 315 315 315 315 315 316 316
310 310 310 309 310 310 311 311 309 309 309 311 312 312 315 325 332 331 328 327 332 336 335 336 337 336 338 337 331 329 329 329 330 330 330 329 328 326 324 323 323 323 323 322 322 322 323 323 323 323 322 322 321 320 319 319 319 318 318 317 317 316 316 315 314 314 314 313 313 312 312 312 312 312 311 311 312 312 312 312 312 312 312 312 312 313 313 313 313 313 314 314 314 313 313 314 314
Wind_Speed
6 6 6 6 6 8 7 4 6 3 4 8 7 7 3 2 4 7 7 4 3 3 5 3 1 2 1 3 2 4 3 4 6 3 1 5 7 13 14 17 22 24 22 21 24 23 20 20 18 16 15 17 18 18 17 17 17 16 16 17 18 19 20 20 20 20 19 19 18 17 17 17 17 17 16 16 16 15 15 14 15 15 15 15 14 14 14 14 14 14 14 14 15 15 15 15 14
5 5 4 4 4 6 4 1 7 6 6 9 7 7 3 3 6 9 8 6 5 4 3 2 2 2 1 3 2 3 1 4 7 5 5 8 11 13 15 19 23 24 22 21 24 22 20 20 18 17 15 16 18 18 17 16 17 16 17 18 19 20 20 19 20 19 19 18 18 17 17 17 16 16 15 15 15 15 14 14 14 14 14 14 14 14 13 13 13 13 13 13 14 13 13 13 12
3 4 3 4 4 4 3 3 7 8 8 9 7 5 3 6 10 9 7 6 3 2 1 0 2 3 2 4 3 4 1 4 5 7 8 11 11 13 17 20 23 23 21 21 23 21 19 19 19 17 14 15 18 18 17 17 17 16 17 18 20 20 19 19 19 19 18 17 17 17 16 16 16 16 15 15 15 15 14 13 13 13 13 13 13 13 12 12 12 12 12 13 12 12 11 11 10
1 2 3 5 4 4 5 6 6 8 9 8 8 6 5 9 10 8 6 4 1 2 3 3 3 2 4 5 1 3 0 4 4 6 7 9 9 17 21 21 23 22 20 20 21 21 19 20 19 17 15 15 18 19 17 17 16 16 17 18 19 19 19 19 18 18 17 17 16 16 16 15 15 15 14 14 14 14 13 12 13 13 13 13 12 12 12 11 11 11 12 12 11 10 10 9 9
2 3 4 6 5 3 4 6 6 8 9 8 8 7 7 10 9 5 3 2 1 5 4 4 3 3 2 3 3 3 2 4 5 6 8 10 13 21 22 21 23 20 18 19 20 20 19 21 20 17 15 16 18 19 18 17 17 17 17 18 17 17 18 17 17 17 17 16 16 15 15 15 15 14 13 13 13 12 12 12 12 13 14 14 13 13 12 11 10 9 10 10 10 10 9 9 9
4 4 5 6 3 2 5 7 8 9 10 11 10 8 9 11 8 3 3 2 2 4 4 5 4 1 3 1 1 2 4 2 5 7 9 13 18 22 22 21 21 19 18 19 19 19 19 21 20 17 16 16 19 18 18 18 17 17 17 17 16 16 17 17 17 16 17 16 15 15 14 14 14 13 12 12 11 11 11 11 10 10 12 14 14 14 12 11 10 8 8 9 11 10 9 9 9
6 5 5 6 3 2 8 10 10 11 11 12 11 10 10 8 5 4 4 4 4 5 4 4 3 6 3 3 3 3 5 2 5 8 11 16 20 22 22 21 20 20 19 18 18 18 21 22 20 18 16 16 18 18 18 18 17 18 17 17 16 16 16 16 17 16 16 16 15 15 14 15 13 12 11 10 9 9 9 9 9 8 9 11 13 13 11 11 10 8 7 9 11 9 8 9 9
6 6 3 5 6 5 8 11 12 11 10 9 9 10 10 5 1 5 5 5 5 4 5 3 3 7 2 3 3 5 6 2 5 9 14 18 22 22 21 20 21 20 19 18 18 19 21 21 20 18 17 16 18 18 18 18 18 18 18 17 16 16 15 16 17 16 16 16 15 15 14 14 12 11 10 9 9 9 9 9 8 8 8 9 9 9 10 11 10 9 9 10 10 7 7 8 9
8 6 2 5 8 7 9 11 12 13 11 8 8 9 10 6 2 5 9 8 8 6 8 6 5 7 3 6 3 6 6 3 7 11 16 20 22 21 20 20 20 21 19 18 19 19 18 20 20 18 17 16 17 18 18 18 18 18 18 17 17 16 16 16 17 17 16 16 15 15 14 12 11 11 11 9 8 8 9 8 7 7 8 8 8 8 10 11 10 10 10 10 8 6 6 8 9
7 6 5 6 8 10 11 10 10 11 11 10 10 10 11 11 5 7 12 12 11 9 11 8 7 9 4 7 5 5 6 8 11 14 17 20 23 21 19 19 19 20 19 18 19 18 17 19 19 18 17 15 17 18 19 19 18 18 18 18 17 17 16 17 17 17 16 16 15 14 13 12 12 11 10 7 7 8 8 8 6 6 7 7 7 8 9 9 9 9 10 9 7 6 5 7 9
6 5 5 6 9 11 10 10 11 9 9 9 10 10 10 11 10 11 13 13 14 12 10 6 9 12 8 8 4 6 8 11 14 17 18 20 22 20 19 18 18 19 19 19 20 18 18 18 18 18 16 16 17 18 20 20 19 18 19 19 17 17 17 17 17 16 16 15 14 13 12 11 11 10 8 6 7 9 9 9 6 6 6 6 6 7 8 8 8 8 9 9 6 5 4 6 8
7 6 6 8 9 10 10 11 10 8 8 9 9 9 9 10 11 11 12 13 12 12 11 9 8 9 11 9 4 9 11 13 15 18 20 20 21 20 19 18 18 18 18 20 20 19 19 18 17 17 16 17 17 18 19 20 19 18 19 19 17 17 17 18 17 16 15 14 14 12 11 11 10 8 7 7 7 8 9 8 7 6 5 5 6 7 8 8 9 9 10 8 7 5 4 5 6
7 7 7 8 9 9 10 9 8 7 7 8 8 6 6 8 10 8 10 11 10 11 10 11 9 7 11 7 6 9 12 15 17 20 20 20 20 19 18 17 18 18 18 20 19 19 20 18 17 16 16 17 17 17 18 19 19 18 19 19 17 17 17 17 16 15 15 14 13 12 11 10 8 7 7 7 7 8 8 8 7 6 6 5 5 6 7 8 9 10 11 9 8 6 5 4 5
7 6 6 8 8 8 8 8 8 8 7 6 4 4 5 6 7 6 8 10 11 10 7 8 11 10 10 6 5 7 11 18 20 21 21 20 19 19 18 18 18 18 18 19 19 19 19 18 18 18 17 17 16 15 15 16 17 18 19 18 17 17 17 16 16 15 14 14 13 11 10 9 7 6 6 7 7 8 9 8 8 7 7 6 5 5 7 9 11 12 11 10 9 7 5 4 4
6 5 5 8 7 8 8 9 9 8 6 4 6 5 4 5 4 6 6 9 8 3 3 6 11 9 8 10 8 9 16 22 23 22 21 20 19 18 18 18 18 18 18 18 18 19 19 18 18 18 17 17 16 14 13 14 16 18 19 18 17 17 17 16 15 14 14 13 12 11 9 7 6 5 5 6 6 7 9 8 8 8 7 6 5 5 6 9 12 12 12 11 10 8 6 5 4
6 5 6 8 8 9 8 9 9 8 4 6 8 4 4 5 3 5 4 6 6 2 5 8 12 7 4 10 8 16 25 24 24 23 21 20 19 19 18 18 18 18 18 18 18 18 18 19 19 18 17 17 16 15 14 13 14 16 18 17 16 16 16 16 14 14 13 13 11 10 8 6 6 5 4 5 5 6 8 7 7 8 7 7 6 5 6 8 10 11 11 11 10 8 6 5 4
5 6 7 8 9 9 7 10 8 5 3 8 9 3 3 3 2 3 2 5 7 5 9 8 10 7 3 3 9 25 29 25 26 24 22 20 20 19 18 18 18 18 18 18 18 17 17 18 19 18 18 16 16 16 15 14 14 15 16 16 15 15 16 15 14 13 12 11 11 9 7 7 7 5 5 5 4 4 5 6 6 6 7 7 7 6 6 7 8 9 10 10 9 8 6 4 4
6 6 9 8 9 9 8 9 6 2 3 8 8 2 2 2 2 1 3 7 5 4 9 7 7 7 1 4 17 27 28 27 27 24 22 20 19 19 17 18 18 17 18 18 18 17 17 18 18 18 17 17 16 16 14 14 14 14 14 13 13 13 14 14 12 11 10 10 10 9 7 7 7 6 6 5 4 4 3 4 5 4 5 6 6 6 6 6 7 7 8 9 9 8 6 4 4
8 7 8 8 8 6 4 6 5 4 3 4 4 1 2 4 4 3 5 6 4 6 10 9 9 9 5 10 20 25 26 26 26 23 22 20 19 18 17 17 18 18 18 18 18 18 18 18 18 18 18 17 17 16 14 14 14 13 13 13 12 12 13 12 11 10 10 10 10 9 7 6 6 5 5 5 6 6 3 2 4 3 3 4 4 5 4 4 5 6 7 7 8 7 5 4 5
9 8 7 9 8 3 3 5 5 5 3 3 4 2 4 4 3 4 6 6 6 8 9 11 12 11 10 14 19 22 25 25 24 22 20 19 18 18 18 17 18 18 18 18 18 17 17 18 18 18 18 17 16 15 15 14 14 13 13 13 13 13 13 12 11 10 9 10 10 8 7 6 6 5 4 4 5 5 2 1 2 2 1 2 3 3 1 2 3 4 6 6 6 6 5 6 6
8 9 9 7 5 4 6 7 6 4 4 6 6 5 7 3 3 6 7 7 7 8 9 11 12 13 13 15 18 20 23 23 22 22 19 18 18 17 16 17 17 17 17 17 17 17 17 17 18 17 17 17 16 15 15 15 14 13 12 12 13 13 12 12 11 10 10 10 9 8 7 6 6 5 5 4 4 4 3 2 3 3 2 2 3 3 3 2 2 4 5 6 6 7 7 6 6
7 10 12 6 3 7 7 7 7 5 5 6 8 8 6 4 6 8 7 8 4 1 5 10 9 11 14 15 17 18 20 20 19 20 19 17 16 15 15 16 16 16 17 16 17 17 17 16 17 17 16 16 15 15 14 14 13 12 12 12 13 12 12 12 11 10 10 10 8 7 7 6 6 6 5 5 5 5 5 4 4 4 5 4 3 4 4 4 4 5 5 5 6 7 7 7 7
8 9 13 9 6 8 5 5 6 4 6 8 8 7 6 7 9 8 8 10 5 3 2 7 9 10 13 15 15 16 17 17 17 17 18 17 16 16 16 16 17 17 17 16 17 18 17 16 16 16 16 15 14 14 14 13 12 11 11 12 12 12 12 11 11 10 10 9 8 8 7 7 6 6 6 6 6 5 5 5 4 5 4 4 3 3 4 4 5 4 5 5 5 7 8 8 8
10 8 11 12 10 9 5 5 6 5 8 8 7 8 8 10 9 7 8 10 5 1 2 6 10 11 14 16 15 16 16 15 15 15 16 17 17 16 17 16 16 16 16 16 17 17 17 17 16 16 15 15 14 14 13 12 11 11 11 11 11 11 11 11 10 10 10 9 8 8 8 7 7 7 7 7 6 5 5 4 4 4 3 3 3 3 3 3 4 4 5 5 5 6 7 8 10
13 11 9 9 11 11 9 8 8 7 7 7 8 9 10 10 8 10 11 7 2 2 4 7 10 12 14 15 16 16 15 14 14 14 14 16 16 17 16 16 16 16 16 16 17 17 18 17 16 15 15 14 14 14 13 11 11 11 11 11 11 11 10 10 10 10 10 9 8 8 8 8 8 8 7 6 5 4 4 4 3 3 2 2 2 3 3 3 3 4 5 6 7 7 7 8 9
13 15 9 8 9 9 10 10 10 9 7 6 8 11 10 6 5 10 10 2 1 4 6 8 10 13 14 15 16 16 15 14 14 15 15 15 16 16 15 15 16 16 16 16 16 17 18 17 16 15 14 14 14 13 12 11 11 11 11 10 11 11 10 10 10 10 9 9 9 8 8 8 7 6 5 4 4 3 3 3 2 2 2 1 2 2 2 3 3 4 4 6 7 7 8 8 8
8 16 12 9 10 8 9 9 9 8 7 8 9 11 8 3 4 7 4 4 2 6 8 9 10 12 13 14 15 14 14 14 15 16 16 16 15 16 15 15 15 16 16 17 16 18 17 17 16 15 14 14 14 13 11 11 11 10 11 11 11 11 10 10 10 9 9 9 9 9 8 7 5 5 4 4 4 3 3 2 2 2 1 1 2 2 2 3 4 4 5 5 7 8 9 8 8
5 12 11 12 12 10 10 10 9 7 7 9 10 11 9 5 8 8 4 6 5 7 9 9 10 11 13 15 15 13 12 14 16 15 14 15 14 15 16 15 16 16 17 17 16 17 18 17 16 15 14 14 13 13 11 11 10 10 11 10 11 11 11 10 10 10 9 8 9 8 8 7 5 4 4 4 4 3 3 2 2 2 1 1 2 3 3 3 4 4 5 6 7 8 9 9 9
6 8 9 12 12 12 13 12 11 9 7 8 8 9 10 10 11 8 3 6 6 7 8 9 10 11 13 14 14 11 11 14 15 14 14 15 14 15 15 15 17 17 17 17 16 17 18 17 16 15 14 13 13 12 11 10 10 10 11 11 11 11 11 10 10 10 8 8 8 8 7 6 5 4 4 4 3 3 2 2 2 1 1 1 2 3 3 3 4 4 5 6 7 8 9 9 10
9 9 8 8 9 11 14 14 12 11 9 8 7 8 9 13 13 8 5 7 8 9 8 9 10 11 12 13 13 12 12 13 13 13 14 13 12 14 14 15 16 15 16 17 16 18 19 18 16 15 14 13 13 12 11 10 10 11 11 11 10 10 10 9 9 9 8 8 7 7 6 6 5 4 4 3 3 3 2 2 2 1 2 2 2 3 3 3 4 4 5 6 7 8 9 9 10
9 10 8 7 7 7 12 14 13 12 9 9 10 8 8 14 14 9 7 8 9 10 10 10 11 11 12 13 12 11 11 11 11 12 13 12 12 13 14 15 16 14 15 16 16 18 19 17 15 15 14 14 13 11 11 10 10 11 12 11 11 10 10 9 9 8 8 8 7 6 6 5 5 4 3 3 3 3 3 3 2 2 2 2 3 3 3 4 5 4 5 6 7 7 8 9 10
9 9 8 9 7 5 11 13 14 13 10 11 12 7 7 12 13 10 8 9 10 10 11 11 12 13 13 13 12 11 10 10 11 12 11 11 11 12 13 14 15 14 13 15 16 17 18 17 15 14 14 14 13 11 11 11 11 11 11 10 10 9 9 8 8 8 7 7 7 7 6 5 4 3 3 3 3 3 3 3 2 2 3 3 3 4 4 5 5 5 5 5 6 7 7 8 9
10 9 8 10 10 6 8 11 14 15 11 13 14 9 7 9 11 9 8 10 11 11 11 12 13 14 14 12 12 10 9 10 10 11 11 10 9 9 11 13 12 12 12 14 15 16 17 17 15 14 15 14 13 12 12 12 12 11 10 9 8 8 8 7 7 7 7 6 6 6 5 5 4 4 3 3 3 3 3 3 3 3 4 4 4 4 5 5 5 5 6 6 6 6 7 8 9
9 10 8 9 12 9 7 10 14 15 11 13 14 12 8 7 10 10 9 11 12 10 11 12 11 12 13 12 12 11 10 10 9 10 10 9 8 8 6 8 10 10 11 13 14 16 17 16 15 15 15 14 13 13 12 12 12 11 9 8 7 6 7 6 6 6 6 6 5 5 5 5 5 4 4 3 3 3 3 3 3 3 4 4 4 5 5 5 4 5 7 7 7 7 7 7 8
11 11 8 7 11 11 9 8 11 15 13 13 15 14 10 6 9 10 10 11 11 10 9 10 11 11 12 12 11 10 10 10 10 12 12 13 15 12 8 7 8 8 10 12 14 17 17 16 15 16 15 13 12 12 11 11 11 10 10 8 7 7 6 6 6 6 5 5 5 5 5 5 4 4 3 3 2 2 3 3 4 3 4 5 5 5 5 5 4 4 6 7 7 7 7 7 8
13 14 10 9 9 11 10 6 8 14 14 13 14 14 13 9 10 11 10 11 10 9 9 8 10 11 11 11 9 10 11 10 12 14 14 15 16 17 15 12 10 9 9 12 14 16 16 16 17 16 15 14 12 12 12 12 11 11 11 10 9 8 8 7 6 6 5 5 4 4 4 4 4 4 4 3 2 2 3 3 3 4 4 5 5 6 5 5 5 5 5 6 7 8 8 8 7
12 14 11 10 9 10 11 7 7 10 11 13 14 14 15 12 11 13 11 11 11 10 10 10 11 11 11 11 10 11 12 11 14 15 15 14 11 11 15 16 14 11 9 11 14 15 14 16 17 16 15 14 14 14 14 13 12 12 11 11 10 9 8 8 7 6 5 4 4 4 4 4 4 4 4 3 3 3 3 3 3 4 4 4 5 6 6 5 6 6 5 6 7 8 8 7 7
12 12 11 10 9 8 11 9 7 7 9 11 14 14 14 13 12 13 12 11 12 11 11 12 12 10 9 12 12 11 11 10 13 13 14 15 11 10 13 15 13 10 10 11 13 13 13 15 16 15 15 14 14 14 14 12 11 11 10 10 10 9 8 7 6 5 4 4 5 4 4 4 4 4 4 4 4 3 3 3 4 4 4 4 5 5 6 6 6 6 6 6 6 7 8 8 6
10 9 9 9 9 6 9 9 6 6 7 9 14 13 12 13 13 13 13 11 11 12 11 9 9 8 8 10 11 11 11 10 11 11 13 16 14 13 15 15 12 8 9 10 11 11 12 13 14 14 14 14 13 13 11 10 10 9 9 9 9 8 7 6 5 5 4 4 4 4 4 4 4 5 4 4 4 3 4 4 4 4 4 5 6 6 6 6 6 6 6 7 7 7 8 8 7
9 9 9 8 11 9 6 10 8 6 5 4 10 13 9 11 12 11 13 12 10 10 9 8 9 10 11 11 10 12 13 11 10 11 13 15 15 15 17 16 13 9 9 10 10 11 13 13 14 14 14 14 13 11 9 9 10 10 10 9 8 7 7 6 5 4 4 3 3 3 3 3 4 4 4 4 3 3 4 4 4 5 5 6 7 7 7 7 6 6 6 7 8 9 9 9 8
10 11 10 8 12 10 2 8 10 7 5 4 7 11 8 10 12 11 12 12 10 8 7 10 11 10 12 13 12 12 12 10 10 11 12 14 15 15 17 18 16 12 9 9 10 12 13 13 14 14 13 13 12 10 10 11 11 12 11 10 8 7 6 6 5 4 4 3 3 3 3 3 3 3 3 3 3 3 3 4 4 5 6 6 7 8 8 7 7 6 7 8 9 10 11 10 9
9 11 11 7 12 12 3 8 11 7 8 9 9 9 7 11 14 13 12 12 11 8 9 13 12 10 11 12 12 10 10 9 10 12 13 14 14 14 14 17 18 14 10 9 10 11 13 14 14 13 12 12 11 11 12 12 11 11 10 9 7 7 6 5 5 5 4 4 3 3 2 2 2 2 1 1 2 2 3 4 5 6 7 7 8 8 8 8 8 7 8 9 9 10 10 11 11
8 10 10 5 9 12 7 8 10 8 7 8 10 10 6 10 14 15 14 14 14 10 11 14 13 11 10 9 10 9 9 9 10 12 12 13 14 14 13 15 18 16 13 12 11 11 12 13 14 13 12 12 12 12 12 11 11 10 9 7 6 6 6 5 4 4 4 3 3 2 2 2 1 1 1 1 2 3 5 6 6 7 8 8 9 9 10 9 9 9 9 9 10 10 10 12 12
7 12 12 8 7 9 8 7 8 8 4 4 10 12 7 7 12 16 17 16 16 14 13 14 14 13 11 10 10 10 10 9 10 11 11 12 14 15 15 16 18 16 14 13 12 12 13 14 14 13 14 13 12 12 11 11 10 9 8 6 5 5 6 6 5 4 4 3 3 3 2 2 2 2 2 3 4 5 6 7 7 7 8 9 9 9 10 10 10 10 10 10 11 11 11 12 13
5 12 14 10 8 8 7 7 7 6 3 4 11 12 8 6 9 14 17 17 17 16 17 17 16 14 12 12 11 10 10 10 11 11 11 12 14 16 17 18 18 18 17 15 14 15 16 16 15 14 13 13 12 12 11 10 9 7 7 7 7 6 7 7 6 5 5 4 4 3 2 1 1 2 3 4 5 6 7 7 7 7 8 9 9 9 10 10 11 11 12 12 12 12 12 13 14
5 11 14 11 9 8 6 7 7 6 6 9 13 14 10 7 7 11 13 15 16 15 15 16 16 15 13 13 12 11 10 10 10 11 11 13 15 16 18 19 20 19 18 17 17 17 16 15 15 14 13 12 12 12 10 9 8 7 7 8 8 7 7 7 6 6 5 4 3 2 0 1 2 3 4 4 5 6 6 7 7 7 8 8 8 9 10 10 11 11 12 13 13 13 13 14 15
8 10 13 11 9 8 6 6 6 6 8 12 14 15 12 9 8 10 11 12 14 13 13 14 15 15 14 13 12 11 10 10 11 12 13 15 17 17 20 21 22 22 21 19 17 17 16 14 14 14 12 12 12 11 10 9 8 8 8 9 8 8 7 6 6 5 4 2 1 1 2 3 3 4 4 4 5 6 6 6 7 7 8 8 8 9 9 10 10 11 12 12 12 13 14 14 15
10 10 11 10 8 7 6 6 6 8 9 11 15 15 13 11 7 7 10 14 16 15 14 15 16 15 14 13 12 11 11 11 12 12 14 15 17 19 21 21 22 24 23 20 19 18 17 15 15 15 13 13 12 11 11 10 8 9 8 8 7 6 5 4 3 2 1 1 1 2 3 2 2 3 3 4 5 6 6 6 7 7 7 7 8 9 9 10 10 11 12 12 13 13 14 14 15
11 11 11 10 9 7 8 9 8 10 7 5 11 13 11 10 7 4 8 12 14 14 14 15 17 16 15 14 12 11 11 12 13 13 14 14 14 18 20 21 22 24 23 22 21 20 18 17 17 16 14 13 13 12 11 10 9 9 8 6 6 4 3 2 2 1 1 1 0 1 2 1 1 2 3 3 5 6 6 6 7 7 7 8 8 9 9 10 10 11 12 12 13 14 14 15 16
13 13 12 11 9 9 10 10 8 9 6 4 7 10 8 9 6 4 6 6 6 8 10 12 15 15 15 14 12 11 12 13 13 13 14 13 15 19 22 22 23 23 23 24 23 21 19 18 17 16 15 13 13 12 11 11 9 8 6 5 4 3 3 2 2 2 1 1 1 1 1 1 2 2 3 4 5 6 6 6 7 7 7 8 9 8 9 9 9 10 11 12 13 13 14 15 16
13 12 12 11 9 8 8 8 8 9 8 7 8 7 7 7 3 5 5 3 2 4 6 8 10 12 12 12 12 13 13 13 13 14 14 15 18 21 23 23 24 25 25 24 23 22 21 18 16 17 16 14 13 12 11 10 8 6 5 4 4 4 3 3 3 3 2 2 2 2 2 2 2 3 3 4 5 6 6 6 7 7 7 7 7 8 8 9 9 10 10 11 12 13 14 15 16
12 11 11 11 9 7 4 2 2 4 5 7 8 6 3 3 4 4 2 4 5 5 7 8 9 10 12 12 13 13 13 14 14 14 14 16 20 21 21 20 19 22 23 22 22 22 20 18 17 17 16 15 13 12 10 9 7 7 6 6 6 5 5 4 4 3 3 3 3 2 2 2 3 3 3 4 5 5 6 6 6 6 6 6 6 7 8 8 9 10 10 11 12 12 14 15 16
9 11 12 11 10 8 5 2 3 0 5 6 8 7 4 4 4 4 4 6 7 7 9 10 11 12 13 13 13 14 14 13 12 11 13 16 18 18 20 20 18 18 18 18 19 20 19 18 18 17 16 14 13 11 10 9 8 8 8 7 7 7 7 6 4 4 4 3 3 3 3 3 4 4 4 4 5 6 6 6 6 6 7 7 7 8 8 8 9 10 10 11 12 12 13 15 15
9 10 11 9 6 6 5 5 4 5 8 6 8 10 9 7 5 6 8 9 10 10 11 11 12 14 14 13 14 15 15 13 11 11 12 12 16 19 20 19 20 20 16 14 16 17 16 17 17 16 14 13 12 10 10 9 8 8 8 8 8 7 7 6 5 5 4 4 4 4 5 5 5 5 5 5 5 6 7 7 7 7 8 8 9 9 9 9 9 9 10 11 12 13 14 14 15
9 8 10 8 6 6 6 6 6 8 9 6 8 11 9 8 6 8 10 11 12 13 12 13 14 14 14 13 14 14 14 12 10 12 11 10 16 22 21 21 22 22 18 15 17 18 17 16 15 14 13 12 12 11 10 9 8 8 8 8 8 7 6 6 6 5 6 6 6 7 7 7 7 6 6 7 7 7 8 8 8 9 9 9 10 10 10 10 9 9 10 11 11 13 14 15 15
8 9 11 9 7 7 7 7 5 6 8 7 8 9 7 7 7 11 12 12 13 14 13 14 15 14 13 11 12 12 13 13 14 16 15 15 20 23 23 24 24 22 20 17 17 18 17 15 15 14 13 13 12 11 10 9 9 8 8 8 7 7 7 6 7 7 7 8 8 8 8 8 7 7 7 7 8 8 9 9 9 10 10 10 11 11 10 10 10 10 11 11 11 12 14 15 15
10 10 11 10 8 6 7 8 7 6 6 7 7 7 5 4 4 9 12 13 13 14 14 12 12 13 13 11 11 11 13 16 18 18 16 17 22 22 22 25 26 26 25 21 18 18 16 14 13 12 12 13 13 12 10 9 9 8 8 8 8 7 7 7 8 8 9 9 9 9 8 8 8 8 8 8 8 9 10 10 10 11 11 11 11 11 11 11 11 11 11 11 11 12 14 14 14
13 10 10 11 9 7 7 9 9 7 6 5 6 7 4 4 2 1 5 9 11 12 12 11 11 14 12 11 12 14 14 16 18 17 15 16 21 23 24 27 28 28 27 23 21 19 16 13 12 9 9 11 12 12 10 9 8 8 8 8 8 8 8 8 9 9 10 9 9 9 9 8 8 8 9 9 9 10 10 10 10 11 11 11 11 11 11 11 11 12 12 12 11 12 13 13 13
Wind_Direction
325 316 316 320 320 296 272 286 291 261 264 273 270 272 273 271 308 295 277 294 293 31 21 350 339 271 290 348 346 349 350 326 347 335 21 79 131 146 152 150 150 155 149 141 144 147 149 153 153 152 155 160 162 155 148 146 145 142 139 136 137 135 134 133 132 131 130 129 128 128 127 125 123 121 120 120 118 116 114 112 111 110 110 111 111 111 110 111 111 112 114 113 111 111 111 108 101
322 308 309 304 288 279 275 328 288 276 263 267 259 261 270 261 273 277 289 323 337 30 11 8 101 167 5 356 308 270 221 27 29 64 87 117 132 140 151 151 153 154 148 141 141 142 144 151 153 152 153 157 157 148 140 140 140 139 137 136 138 137 136 134 132 132 130 130 129 129 128 126 126 123 120 119 117 112 109 108 110 111 112 112 110 109 109 109 111 114 114 113 110 111 111 107 98
303 301 292 261 243 261 277 241 264 274 266 266 263 260 265 271 278 285 310 339 360 17 271 166 168 167 239 239 219 258 196 65 77 91 107 137 138 149 152 152 155 151 147 140 139 141 143 150 153 152 153 154 151 142 138 138 139 137 137 137 138 138 136 135 133 132 132 132 132 131 129 127 125 123 119 117 117 112 108 106 107 110 112 111 110 109 110 111 113 115 114 113 110 110 110 103 91
255 263 262 254 242 240 253 245 257 270 263 264 268 267 269 279 290 300 318 332 344 235 225 237 214 141 280 269 6 273 181 86 99 91 123 150 147 153 151 151 154 148 145 140 139 141 145 153 152 152 151 152 150 141 138 139 138 137 137 135 136 136 135 135 134 133 134 134 133 131 128 126 123 122 120 120 119 115 112 111 113 116 118 118 115 115 114 113 114 116 115 113 112 114 109 96 81
222 236 232 247 259 258 255 257 260 259 259 267 270 271 278 286 297 309 301 293 245 225 219 253 242 112 259 304 349 274 103 96 102 100 129 141 141 148 149 151 153 150 144 138 138 139 148 155 151 153 151 151 150 141 138 138 138 137 136 134 133 134 135 136 136 135 134 133 133 130 127 126 124 122 123 123 118 117 116 116 119 125 133 132 128 124 120 119 118 116 112 113 118 115 104 88 69
214 210 208 233 266 307 261 253 254 253 254 259 266 272 279 289 298 302 273 229 167 204 220 253 264 268 224 137 302 340 46 93 116 119 130 135 142 145 147 150 154 152 143 138 138 138 149 154 151 153 150 149 148 140 138 139 137 136 136 136 135 136 136 136 137 136 134 134 132 129 128 127 124 120 121 122 119 121 117 114 114 122 137 140 138 130 125 127 123 121 119 120 124 114 97 79 61
219 209 194 216 224 234 246 252 255 257 255 253 257 263 275 288 290 274 259 226 193 178 200 241 269 276 253 135 195 85 63 70 103 126 135 139 145 145 149 153 155 151 143 139 136 140 150 153 151 152 150 148 145 140 138 139 136 135 138 137 136 137 137 137 137 136 134 133 131 131 130 124 120 116 115 117 118 118 113 111 109 115 128 137 141 130 129 136 127 140 149 133 126 113 93 74 60
215 228 206 226 232 213 238 252 252 258 261 257 253 257 275 288 251 264 251 224 238 211 209 217 236 259 219 161 225 116 108 78 93 125 135 142 147 148 153 157 155 151 145 138 137 145 153 152 151 152 150 147 143 140 138 137 135 135 140 139 138 138 139 140 137 136 134 132 133 132 126 119 116 113 109 108 109 110 109 109 110 116 123 132 142 136 140 145 142 160 163 140 127 113 92 72 65
204 222 214 237 244 232 239 251 250 253 251 242 243 247 260 256 180 253 257 250 257 252 247 253 234 246 195 189 205 120 136 121 117 130 138 144 148 151 155 159 155 152 147 138 137 144 152 151 152 153 149 147 142 139 138 137 136 136 139 142 143 141 142 142 139 138 137 136 135 130 123 119 118 113 106 101 105 113 115 116 119 126 134 140 147 154 155 153 154 160 153 141 132 117 91 72 70
203 216 222 229 241 244 241 248 249 248 244 239 244 242 249 250 233 247 259 262 261 256 254 259 234 238 240 206 182 112 129 132 138 140 143 146 148 152 155 157 154 152 148 140 138 141 148 151 153 152 148 145 141 138 138 139 139 139 142 147 148 146 146 143 142 141 141 138 133 128 124 123 120 113 104 98 106 113 107 102 106 120 138 148 152 165 166 159 155 150 145 144 139 122 91 71 71
207 205 229 233 232 242 243 249 247 239 237 238 242 239 249 256 257 259 261 263 261 259 249 238 230 230 232 220 175 99 117 136 147 146 147 148 149 151 152 153 152 150 146 144 141 141 146 148 150 149 146 142 140 139 139 142 143 144 147 150 150 150 148 145 145 143 141 137 132 130 127 126 121 112 99 91 103 106 98 92 88 99 119 142 154 162 162 157 154 152 150 150 146 128 97 74 68
222 194 206 231 232 241 246 252 249 240 232 232 237 233 239 247 251 257 258 259 254 251 239 219 225 220 214 216 151 119 135 150 153 149 149 149 150 151 151 150 150 149 147 147 143 143 147 145 145 144 144 142 140 140 141 146 148 150 152 153 154 150 149 148 147 145 142 138 136 136 133 129 121 110 94 84 97 103 101 100 91 87 96 117 145 158 159 158 159 158 156 154 149 135 108 81 66
229 205 204 228 239 247 246 250 247 248 244 235 237 220 217 232 235 244 256 262 252 244 236 218 216 212 213 201 123 132 146 157 155 149 150 151 152 151 150 149 149 148 149 151 147 148 149 144 142 140 141 140 139 141 143 148 151 153 153 155 155 151 153 151 148 146 144 141 140 139 134 130 121 108 95 86 91 99 101 100 94 83 77 85 117 149 161 165 165 159 157 157 150 141 124 93 67
224 216 221 233 240 245 245 247 242 245 249 228 201 164 186 224 231 248 266 266 257 245 239 221 210 213 216 185 147 162 155 159 156 150 152 150 149 149 147 147 148 149 152 154 151 151 152 147 143 142 140 137 137 139 142 148 151 154 155 156 155 154 157 155 151 148 145 144 142 139 135 130 122 109 100 92 88 95 95 93 95 84 73 74 93 132 153 163 164 162 159 157 152 147 134 105 78
223 217 230 241 237 235 235 237 243 248 243 175 146 137 187 219 236 261 271 267 271 263 256 222 204 214 203 192 199 169 154 157 154 150 150 144 144 145 142 145 149 150 154 156 155 156 156 152 146 145 143 141 140 139 142 146 150 154 157 158 156 158 159 157 154 150 148 145 142 140 136 129 124 115 102 95 90 94 93 92 97 92 86 82 86 118 150 162 163 163 160 156 155 151 139 116 95
221 222 221 238 236 231 223 222 235 243 221 134 137 132 209 199 205 267 289 277 279 239 236 212 197 218 202 205 197 144 147 152 150 147 144 142 143 144 142 147 150 149 154 158 159 160 161 155 150 149 148 147 145 142 143 144 148 154 157 158 157 160 160 158 155 153 150 145 145 141 135 134 129 117 102 97 90 96 104 106 101 98 97 91 92 110 143 161 164 162 159 158 157 153 144 124 116
208 221 219 230 231 228 220 215 219 232 187 136 144 151 240 199 164 263 255 253 266 226 216 204 190 211 261 223 135 130 142 148 147 146 144 146 146 147 149 149 150 149 154 160 161 163 163 157 151 151 151 151 148 144 143 144 148 150 154 158 159 162 162 158 154 152 148 146 148 140 134 137 131 125 119 106 91 97 110 113 109 104 105 100 99 109 137 160 163 162 163 161 158 156 146 127 126
197 211 221 226 226 227 229 218 201 217 181 147 155 164 266 286 358 307 224 223 242 216 200 193 181 184 228 117 128 131 140 149 151 153 152 152 150 152 152 151 152 152 155 159 162 164 161 156 152 150 151 153 150 145 144 145 146 145 150 155 157 162 163 158 150 149 149 150 153 146 142 142 136 134 134 126 121 130 121 117 119 113 115 113 110 115 136 161 168 168 169 168 165 158 142 134 143
204 214 221 226 230 229 229 215 195 216 197 153 180 183 282 299 338 337 272 243 212 209 195 187 183 169 147 130 135 135 141 151 154 158 160 156 155 155 153 153 156 156 158 160 162 164 159 154 152 152 153 153 151 148 147 148 149 150 152 155 156 160 164 163 156 155 155 156 160 157 155 158 154 151 156 162 157 159 173 154 141 134 138 138 126 114 118 150 173 181 182 181 175 167 163 180 177
213 222 223 229 233 213 184 212 216 234 253 249 237 251 273 282 315 298 289 279 232 219 199 188 190 173 154 142 142 139 144 154 155 159 163 158 157 158 156 155 158 158 161 161 159 161 159 154 152 155 156 154 153 151 149 151 153 156 156 159 160 160 163 168 165 162 160 159 163 163 162 166 163 165 174 167 157 169 211 219 155 128 142 174 130 110 98 126 157 187 197 195 188 195 209 213 199
211 217 229 235 225 213 206 216 223 233 253 269 270 274 267 273 297 279 287 282 240 220 201 192 194 175 159 154 151 146 149 157 158 161 164 160 159 161 158 156 158 158 161 161 157 160 160 155 154 157 157 156 155 153 153 154 156 159 162 164 164 165 165 168 170 167 166 163 163 167 167 166 161 162 167 160 154 165 174 175 168 152 168 201 164 158 202 202 170 188 202 205 205 215 221 221 217
216 216 235 246 214 226 215 208 215 224 247 263 266 268 279 300 281 268 276 278 272 268 197 186 191 177 162 160 155 152 157 160 162 164 163 161 160 158 155 155 157 157 162 163 158 159 158 157 159 159 159 159 158 156 156 156 160 163 165 166 166 168 169 169 171 172 171 169 168 167 166 164 163 163 163 164 164 164 163 161 162 162 168 188 191 189 202 205 201 198 201 208 212 220 223 226 226
223 216 227 230 221 232 210 198 209 219 245 251 259 274 297 289 275 272 271 272 286 360 241 185 175 169 162 160 157 158 161 161 165 165 161 161 161 158 155 158 159 159 164 163 157 156 156 159 162 161 161 160 159 159 159 159 163 165 165 167 168 168 169 169 170 172 172 171 171 168 167 167 164 164 169 172 170 167 163 161 157 156 160 167 181 195 203 210 217 215 213 217 219 221 224 228 230
224 223 216 220 224 229 217 212 210 222 248 256 272 284 284 272 276 286 275 271 269 271 239 186 161 160 166 163 160 164 163 162 163 160 159 161 161 159 157 159 160 163 165 160 156 156 159 161 162 163 162 160 161 161 160 161 164 164 164 166 167 167 167 168 167 168 168 168 171 170 169 167 166 169 176 178 175 171 164 162 161 157 162 169 186 199 204 211 222 227 227 229 230 227 226 228 234
219 229 217 218 225 227 230 236 236 242 251 257 268 274 270 267 287 288 273 276 277 217 194 170 159 163 170 168 165 164 162 161 155 154 162 162 160 159 159 159 159 164 162 159 159 159 161 161 163 165 163 163 163 161 161 162 164 163 163 163 165 165 164 165 164 163 164 165 167 168 165 165 173 177 175 175 171 166 163 163 162 163 168 184 209 217 221 226 228 234 235 235 236 235 233 231 234
209 222 224 216 220 221 226 232 237 241 243 250 257 261 258 257 288 274 257 260 77 192 172 161 168 170 172 174 170 162 159 158 154 158 163 158 157 158 159 159 161 165 160 159 163 161 161 162 165 166 164 167 165 162 164 163 164 163 162 162 162 162 162 161 160 161 162 161 162 164 165 170 176 173 167 172 175 173 174 180 183 180 176 195 234 239 242 245 249 251 248 246 243 242 242 237 235
194 215 222 220 224 216 216 222 227 232 236 242 249 254 248 209 253 248 185 114 150 178 165 166 178 178 176 173 167 159 156 158 159 160 155 151 155 155 155 160 164 165 160 161 163 160 161 163 166 166 166 169 166 164 166 164 164 161 160 160 160 161 161 159 159 161 161 161 163 163 167 173 173 167 173 184 192 199 201 217 227 220 201 203 247 262 264 262 261 259 257 258 255 252 250 244 242
188 209 218 224 233 227 221 224 223 227 230 228 238 252 247 209 236 246 140 118 168 175 162 171 179 177 177 171 162 160 158 156 158 155 152 155 161 159 157 161 163 162 163 165 161 159 162 164 166 167 169 169 167 165 164 164 163 160 160 159 159 160 159 159 161 162 161 162 164 167 169 174 180 181 187 195 208 224 227 243 256 261 255 245 269 275 279 277 266 261 260 262 262 260 257 252 250
206 202 219 220 225 230 225 225 221 221 222 213 225 243 234 216 224 232 173 142 165 174 164 170 179 175 175 168 159 161 157 151 154 157 162 165 163 162 162 163 164 162 164 164 160 161 164 165 166 168 171 170 167 165 163 163 161 160 159 158 159 159 160 162 162 162 162 163 167 174 174 177 190 193 194 201 217 232 238 258 267 273 279 277 276 272 274 272 265 268 266 264 263 261 260 258 256
213 206 230 216 211 225 217 216 215 215 218 202 212 229 209 207 212 194 163 170 171 170 168 171 176 173 171 166 161 165 158 152 160 164 167 166 159 163 166 165 165 163 161 161 161 162 164 165 167 169 171 169 167 166 164 162 160 159 159 159 158 158 161 163 163 163 162 165 172 179 178 183 195 200 205 210 225 244 248 259 272 283 284 281 270 266 268 266 261 265 266 266 265 261 260 259 258
208 202 224 222 222 216 193 198 201 202 203 191 209 232 202 193 193 173 160 184 182 172 174 175 173 171 169 164 162 162 154 154 158 158 162 162 159 165 168 166 166 163 159 163 165 163 163 165 164 166 169 167 167 167 166 163 159 159 160 159 159 158 161 163 163 166 166 170 179 182 183 189 194 197 209 216 227 243 252 257 272 286 287 287 278 275 277 275 267 259 261 266 267 264 262 261 260
205 201 208 214 225 193 169 185 195 196 187 187 208 228 209 184 170 161 165 182 189 182 177 176 173 170 167 164 161 154 151 155 152 151 154 156 158 162 163 165 166 165 163 165 166 163 162 163 161 162 165 165 166 166 163 160 157 158 160 159 161 161 162 164 166 169 171 176 181 183 184 191 194 195 204 219 232 240 253 263 274 283 286 288 284 284 283 281 277 269 262 257 263 266 264 263 260
203 209 209 198 206 194 166 178 194 202 189 188 209 225 216 178 154 153 167 181 192 189 179 177 174 169 168 166 159 152 146 143 141 145 147 150 153 150 154 160 163 164 163 162 163 163 162 161 159 159 163 164 164 161 156 155 155 156 158 158 161 162 163 167 170 175 177 177 178 176 178 186 191 195 208 220 232 240 254 271 281 281 290 292 285 284 281 282 285 284 278 266 261 263 266 266 262
191 206 216 191 198 206 178 167 184 202 202 191 203 226 229 171 157 162 169 184 191 190 181 176 174 170 173 169 158 154 141 127 129 135 133 121 99 80 93 134 148 156 156 159 162 162 161 158 156 157 160 161 157 155 152 152 154 154 154 154 155 159 165 169 170 176 176 172 171 170 173 184 192 197 212 220 227 249 260 275 281 286 294 292 284 279 277 277 280 283 286 282 273 269 270 269 267
188 194 204 187 194 208 195 161 169 187 201 200 196 215 226 181 173 180 176 185 190 189 179 174 177 174 176 173 159 146 129 121 121 120 113 104 101 100 90 103 134 152 153 156 159 161 160 156 155 156 158 157 153 152 150 150 153 154 151 149 150 152 158 163 165 171 171 166 170 172 178 189 196 199 211 223 226 253 270 280 285 293 294 291 288 282 279 273 274 285 289 286 284 277 270 266 268
192 187 193 192 189 204 200 148 148 181 196 204 197 207 217 197 188 194 182 179 188 186 174 177 185 180 177 170 150 126 115 114 116 112 109 105 112 126 126 123 138 153 155 156 160 162 161 158 156 157 158 156 153 152 150 151 154 154 152 152 154 154 154 161 166 168 166 168 174 178 190 198 201 204 218 233 230 246 269 277 283 289 291 296 294 288 292 288 285 294 290 284 284 280 269 262 267
187 185 194 200 194 198 199 154 129 183 200 202 200 206 210 202 196 197 182 175 189 185 175 186 191 185 176 156 138 124 117 115 117 114 110 105 107 124 127 130 139 150 160 162 164 164 162 161 159 157 159 159 157 158 156 155 158 158 161 163 161 159 159 162 165 166 165 169 175 180 195 203 206 212 219 224 222 236 255 256 267 279 284 296 296 293 297 293 288 289 286 283 283 284 281 271 275
183 189 193 199 205 192 189 171 131 174 207 202 197 206 208 199 198 194 180 179 190 187 185 191 188 183 167 143 133 126 123 127 127 121 118 122 133 140 127 123 131 148 164 167 165 165 165 164 161 158 161 164 163 162 160 159 161 163 166 165 161 158 162 166 162 161 164 170 179 188 200 206 211 215 216 218 222 233 249 253 267 278 283 290 293 293 291 286 285 283 277 280 276 275 280 279 278
188 197 196 197 204 174 167 173 147 168 209 202 190 203 209 195 198 195 186 190 193 189 191 191 179 177 171 147 131 127 134 144 143 137 134 137 143 139 122 116 125 145 160 167 168 167 168 165 163 163 164 167 167 163 163 162 162 164 163 161 159 158 160 157 149 154 165 169 184 200 206 212 217 218 215 219 229 240 254 267 276 276 281 284 283 285 284 280 281 275 266 272 273 266 268 269 262
201 200 200 199 193 183 175 179 169 174 216 227 189 199 208 191 196 198 195 202 197 179 174 178 177 176 179 171 151 143 148 151 150 146 141 142 142 132 122 121 129 140 154 169 174 171 173 170 166 166 167 170 169 165 165 160 155 151 147 147 147 148 152 148 146 157 171 178 191 204 211 218 225 226 218 215 226 245 259 272 279 280 284 286 283 282 279 276 276 275 268 266 270 271 271 267 255
207 207 207 200 186 191 188 163 166 170 204 237 192 196 202 188 194 200 201 206 196 170 169 188 186 175 176 177 166 155 158 166 158 149 146 146 143 134 131 133 134 138 152 172 179 173 175 176 170 168 170 171 169 166 162 154 148 141 137 139 140 144 151 155 162 164 167 175 177 182 193 207 224 230 226 223 226 245 266 275 280 285 288 286 286 285 282 279 275 275 272 265 264 272 280 281 271
200 207 214 204 183 188 161 150 170 184 197 201 202 208 197 186 198 201 197 200 194 184 200 206 193 175 174 171 161 153 162 181 172 156 153 151 145 142 143 138 132 135 150 172 179 175 178 180 174 169 169 169 165 163 159 155 152 147 147 152 156 163 163 157 160 151 145 153 156 162 168 174 209 226 224 243 254 272 288 294 294 296 295 292 293 293 291 290 286 281 276 271 265 266 275 282 279
195 191 200 188 174 185 180 171 186 202 191 176 201 225 202 180 197 200 194 196 196 195 209 214 202 185 176 166 162 160 165 181 178 163 157 153 147 147 149 139 131 133 147 166 177 180 181 175 172 170 165 163 161 159 159 157 156 154 156 159 167 177 166 146 137 124 119 136 146 146 135 117 97 76 77 26 342 322 314 312 309 307 304 301 300 297 294 294 293 290 285 279 272 268 267 273 280
197 172 180 180 173 183 188 193 205 209 179 145 199 225 231 194 193 194 193 196 197 199 208 213 209 197 183 176 179 180 179 181 179 170 165 160 151 150 151 140 131 133 146 162 172 175 172 166 167 166 158 157 159 157 158 157 153 152 154 156 161 163 141 129 126 119 120 135 134 126 116 93 59 32 23 6 344 329 321 316 312 309 306 305 301 295 292 294 294 294 292 284 280 279 276 276 282
185 161 180 190 190 193 195 206 215 210 206 207 198 204 234 223 178 183 192 198 200 202 207 211 210 203 191 188 190 187 189 187 176 169 168 163 154 151 148 139 134 138 148 158 163 166 166 164 164 159 151 153 153 150 151 149 145 146 148 146 143 136 126 128 136 136 139 143 135 127 126 100 4 340 338 331 320 318 317 313 309 306 304 303 299 293 292 295 295 295 294 291 290 290 288 285 281
156 162 187 191 197 204 205 215 218 209 222 227 198 185 214 226 176 177 190 200 202 200 207 212 209 204 195 190 189 183 188 188 170 164 163 155 149 148 143 139 139 139 145 153 157 160 160 159 157 148 144 144 141 141 141 136 134 136 137 136 136 136 136 141 148 148 153 162 156 151 200 307 314 319 326 320 315 318 317 313 310 306 303 301 298 294 292 293 293 292 292 292 294 295 292 289 284
159 173 191 188 201 207 209 223 226 224 226 226 207 189 206 226 200 187 191 201 202 196 203 210 208 204 195 190 187 182 182 178 167 165 159 147 145 145 141 139 140 139 142 145 148 151 149 147 144 137 135 132 129 131 127 121 119 119 123 130 138 142 144 152 156 155 167 183 194 274 296 304 313 322 328 324 321 326 324 316 312 307 303 300 297 296 293 293 294 292 291 290 290 290 289 289 286
175 185 188 183 196 197 206 214 214 230 229 220 211 197 203 223 212 183 188 196 198 199 202 206 207 203 195 189 183 180 178 170 167 163 154 150 151 147 140 138 138 139 140 140 142 145 142 139 134 127 125 123 121 120 119 118 115 113 118 125 130 131 134 146 145 141 190 258 284 300 300 302 318 331 333 328 327 334 333 323 318 312 304 299 296 296 294 294 295 293 291 290 288 287 287 286 284
189 194 188 185 186 184 204 204 201 224 226 204 206 199 203 223 225 193 183 187 192 201 206 207 208 204 196 187 179 178 172 164 166 163 154 155 156 146 140 140 140 139 138 139 140 139 135 135 132 127 125 123 120 118 118 120 116 113 116 118 117 116 115 118 103 81 359 328 337 329 323 327 343 339 339 337 332 338 338 328 324 318 309 303 298 295 295 294 295 293 290 289 289 288 287 285 282
194 196 189 189 186 183 201 201 202 216 199 153 193 200 212 223 216 166 150 159 186 203 209 212 210 205 196 183 175 176 171 167 170 166 160 160 154 146 143 142 142 140 140 141 139 135 132 134 133 129 127 124 120 119 117 114 112 110 109 105 105 111 114 107 91 86 77 58 60 48 22 16 11 355 344 337 333 337 336 329 326 320 313 310 305 301 300 299 298 296 293 293 292 290 288 286 284
196 201 197 202 200 192 202 203 204 208 187 160 172 193 219 214 168 93 109 139 188 206 215 221 213 201 190 180 177 177 177 177 174 168 165 159 150 146 146 145 145 145 144 143 140 137 135 136 135 131 129 128 124 122 120 114 110 105 98 95 102 106 105 103 94 87 88 80 70 60 43 25 8 356 345 339 339 340 338 333 329 325 322 318 314 312 309 307 306 304 301 299 297 295 292 290 289
195 202 204 210 210 197 198 211 209 214 192 170 176 196 216 165 113 87 120 175 182 197 210 211 201 185 181 180 180 182 183 181 173 167 161 152 147 146 140 133 134 141 143 142 140 139 138 139 139 136 133 133 129 125 123 115 109 104 97 97 103 106 108 107 99 90 88 82 69 53 36 24 11 5 355 349 350 346 342 341 336 335 335 331 327 324 320 317 315 311 308 305 302 300 298 296 294
186 202 208 207 214 212 200 149 68 355 218 188 188 203 179 148 150 148 172 187 185 194 201 198 189 179 179 180 182 188 186 174 163 156 152 146 139 129 119 116 121 132 138 141 141 141 141 140 139 137 134 132 128 124 120 115 111 106 102 103 103 105 105 100 91 83 74 63 56 49 46 42 31 26 17 5 1 355 352 352 348 347 346 344 343 340 336 330 324 318 314 310 307 305 302 299 296
190 199 201 193 215 237 221 197 162 195 223 202 193 206 193 185 185 153 169 190 192 196 198 191 184 180 182 184 188 190 177 160 150 143 135 124 113 108 113 126 133 133 134 138 137 135 136 135 135 134 132 130 126 121 118 116 114 108 105 105 103 100 96 88 80 73 64 60 62 59 58 53 42 37 31 20 14 10 8 6 2 360 356 354 354 352 348 343 336 329 321 315 310 309 306 301 298
221 211 197 189 204 211 206 211 197 197 217 218 204 211 205 198 185 159 177 194 191 193 194 188 185 186 185 184 187 182 161 143 132 123 114 111 121 130 139 145 142 136 134 133 131 129 130 130 132 134 130 127 123 118 116 114 112 111 108 103 97 89 82 75 70 68 66 67 67 63 58 54 47 42 36 29 25 22 19 15 11 8 5 3 2 360 357 354 350 343 334 326 320 315 311 304 301
230 226 205 202 214 212 205 212 215 203 211 215 206 208 210 202 178 168 183 192 188 188 191 190 189 187 182 174 173 163 142 129 126 128 136 145 146 146 144 140 136 131 129 127 123 123 125 128 133 134 130 126 121 117 116 112 108 107 103 95 86 78 71 69 68 70 72 68 63 61 56 51 48 43 38 34 31 27 24 20 17 14 11 9 6 3 1 358 353 349 342 334 327 323 317 310 306
203 214 203 199 208 221 218 212 215 221 216 208 208 212 203 172 158 177 189 190 186 187 188 188 186 182 174 157 146 139 131 136 142 145 150 148 141 135 128 126 128 130 133 132 122 114 114 118 121 124 126 123 119 116 112 109 106 101 94 86 78 71 66 66 69 70 70 66 60 57 52 48 47 42 40 38 36 33 28 25 22 19 15 12 8 5 1 357 350 345 341 333 328 324 319 315 312
196 207 204 202 202 205 214 208 204 220 235 223 216 216 170 99 66 215 196 186 181 183 183 179 178 174 159 135 131 133 136 144 149 147 143 136 134 131 128 128 130 133 133 130 119 108 105 108 110 110 115 114 110 108 105 104 102 94 87 81 74 71 66 65 68 67 64 62 58 53 49 47 44 40 40 40 38 36 32 30 27 22 17 13 8 4 360 355 348 343 339 335 330 326 322 320 318